Location: Gage
(33.9753°N, 118.1267°W)
Time: 23:20:47
(UTC+00:00)

ARGOS - Pass Details

Date: 03 August 2024
Orbit: 818 x 834 km, 98.4° (Epoch: 10 September)

Event Time Altitude Azimuth Distance (km) Brightness Sun altitude
Rises 12:32:06 0° 14° (NNE) 3,373 7.0 -7.2°
Reaches altitude 10° 12:34:28 10° 17° (NNE) 2,433 6.3 -6.8°
Maximum altitude 12:39:52 74° 102° (ESE) 858 3.5 -5.8°
Drops below altitude 10° 12:45:11 10° 187° (S) 2,408 5.3 -4.8°
Sets 12:47:32 0° 189° (S) 3,335 6.0 -4.4°
